カタログに戻る

SL-12 DEB

LostHEO
NORAD 29339·DEBRIS·🇷🇺 Russia

打ち上げ May 31, 1989 から Baikonur Cosmodrome

Loading…

次のパス (今後24時間)

TLE

古いSource: Space-Track

元期: Feb 11, 2011, 01:31 UTC

1 29339U 89039AW  11042.06369267 -.00000190  00000-0 -34689-2 0  9996
2 29339 063.7692 052.8695 5456753 014.3601 356.5447 04.33548786 72108

AllMySatでSL-12 DEBをリアルタイム追跡

Download on the App Store